Location: Hilton Head Island
(32.2163°N, 80.7526°W)
Time: 16:41:21
(UTC-04:00)

Transit 2A Rocket - Pass Details

Date: 12 February 2026
Orbit: 583 x 900 km, 66.7° (Epoch: 8 March)

Event Time Altitude Azimuth Distance (km) Brightness Sun altitude
Rises 18:05:48 0° 232° (SW) 3,438 9.9 -0.7°
Reaches altitude 10° 18:08:33 10° 243° (WSW) 2,532 9.6 -1.2°
Maximum altitude 18:13:42 30° 304° (WNW) 1,539 7.1 -2.3°
Drops below altitude 10° 18:18:58 10° 4° (N) 2,575 7.6 -3.3°
Sets 18:21:48 0° 15° (NNE) 3,504 8.1 -3.9°
